FW3268 Weather Reports


Display with metric or nautical units.
time (UTC)temp
F
wind
direction
speed
MPH
gust
MPH
rain 1hr
in
rain 24hr
in
rain mn
in
humidity
%
barometer
mb
20260904154459 89 283 0.0 0.0 0.00 0.00 0.00 69 1015.7
20260904151458 88 276 0.0 0.0 0.00 0.00 0.00 72 1015.7
20260904144500 86 273 0.0 0.0 0.00 0.00 0.00 75 1015.9
20260904142959 85 283 0.0 0.0 0.00 0.00 0.00 76 1015.8
20260904141500 84 279 0.0 0.0 0.00 0.00 0.00 76 1015.8
20260904140004 84 285 0.0 0.0 0.00 0.00 0.00 78 1015.6
20260904134501 83 271 0.0 0.0 0.00 0.00 0.00 79 1015.6
20260904132959 81 266 0.0 0.0 0.00 0.00 0.00 84 1015.6
20260904131459 80 244 0.0 0.0 0.00 0.00 0.00 84 1015.4
20260904130003 78 257 0.0 0.0 0.00 0.00 0.00 87 1015.4
20260904124459 76 283 0.0 0.0 0.00 0.00 0.00 90 1015.5
20260904120003 74 250 0.0 0.0 0.00 0.00 0.00 91 1015.2
20260904114459 73 256 0.0 0.0 0.00 0.00 0.00 92 1015.0
20260904112959 72 249 0.0 0.0 0.00 0.00 0.00 93 1014.6
20260904111459 72 243 0.0 0.0 0.00 0.00 0.00 92 1014.3
20260904110003 72 235 0.0 0.0 0.00 0.00 0.00 92 1014.2
20260904104459 72 241 0.0 0.0 0.00 0.00 0.00 91 1014.2
20260904102959 73 252 0.0 0.0 0.00 0.00 0.00 91 1014.2
20260904101500 73 252 0.0 0.0 0.00 0.00 0.00 90 1014.3
20260904100001 73 252 0.0 0.0 0.00 0.00 0.00 89 1014.4
20260904094459 73 252 0.0 0.0 0.00 0.00 0.00 88 1014.2
20260904093000 74 252 0.0 0.0 0.00 0.00 0.00 88 1014.2
20260904091500 74 252 0.0 0.0 0.00 0.00 0.00 87 1014.0
20260904090003 74 233 0.0 0.0 0.00 0.00 0.00 87 1013.9
20260904084459 74 255 0.0 0.0 0.00 0.00 0.00 86 1013.9
20260904081459 75 211 0.0 0.0 0.00 0.00 0.00 87 1013.9
20260904080002 75 242 0.0 0.0 0.00 0.00 0.00 88 1014.0
20260904074459 74 243 0.0 0.0 0.00 0.00 0.00 94 1014.4
20260904073001 73 130 0.0 0.0 0.00 0.00 0.00 93 1014.7
20260904071459 73 130 0.0 0.0 0.00 0.00 0.00 93 1014.6
20260904070001 73 130 0.0 0.0 0.00 0.00 0.00 94 1014.7
20260904064502 73 130 0.0 0.0 0.00 0.00 0.00 94 1014.8
20260904062958 73 131 0.0 0.0 0.00 0.00 0.00 93 1015.0
20260904060001 73 130 0.0 0.0 0.00 0.00 0.00 93 1015.2
20260904054458 73 130 0.0 0.0 0.00 0.00 0.00 93 1015.3
20260904053000 74 131 0.0 0.0 0.00 0.00 0.00 92 1015.3
20260904050003 74 130 0.0 0.0 0.00 0.00 0.00 92 1015.3
20260904044500 74 130 0.0 0.0 0.00 0.00 0.00 92 1015.3
20260904043001 74 130 0.0 0.0 0.00 0.00 0.00 92 1015.2
20260904041501 74 135 0.0 0.0 0.00 0.00 0.00 92 1015.1
20260904040009 74 143 0.0 0.0 0.00 0.00 0.00 92 1015.1
20260904034502 75 127 0.0 0.0 0.00 0.00 0.00 92 1014.9
20260904033001 75 111 0.0 0.0 0.00 0.00 0.00 90 1015.0
20260904031501 76 110 0.0 0.0 0.00 0.00 0.00 91 1014.9
20260904030004 76 128 0.0 0.0 0.00 0.00 0.00 91 1015.0
20260904024501 76 139 0.0 0.0 0.00 0.00 0.00 90 1015.2
20260904023000 76 139 0.0 0.0 0.00 0.00 0.00 90 1015.3
20260904021500 76 139 0.0 0.0 0.00 0.00 0.00 90 1015.1
20260904020004 76 139 0.0 0.0 0.00 0.00 0.00 90 1015.0
20260904013001 78 107 0.0 0.0 0.00 0.00 0.00 87 1014.8
20260904011501 78 106 0.0 0.0 0.00 0.00 0.00 85 1014.9
20260904010003 79 106 0.0 0.0 0.00 0.00 0.00 82 1014.8
20260904004500 80 56 0.0 0.0 0.00 0.00 0.00 78 1014.7
20260904003001 82 56 0.0 0.0 0.00 0.00 0.00 76 1014.7
20260904001500 83 30 0.0 0.0 0.00 0.00 0.00 71 1014.7
20260904000005 85 318 0.0 0.0 0.00 0.00 0.00 68 1014.5
20260903234500 87 318 0.0 0.0 0.00 0.00 0.00 73 1014.5
20260903233001 89 273 0.0 0.0 0.00 0.00 0.00 72 1014.1
20260903231501 89 273 0.0 0.0 0.00 0.00 0.00 71 1014.1
20260903230003 90 271 0.0 0.0 0.00 0.00 0.00 68 1013.8
20260903224500 91 274 0.0 0.0 0.00 0.00 0.00 66 1013.7
20260903223002 91 251 0.0 0.0 0.00 0.00 0.00 63 1013.6
20260903221459 92 283 0.0 0.0 0.00 0.00 0.00 62 1013.6
20260903220005 92 262 0.0 0.0 0.00 0.00 0.00 63 1013.6
20260903214500 92 264 0.0 0.0 0.00 0.00 0.00 61 1013.7
20260903211500 92 277 0.0 0.0 0.00 0.00 0.00 64 1013.8
20260903210003 92 302 0.0 0.0 0.00 0.00 0.00 63 1013.7
20260903203001 92 298 0.0 0.0 0.00 0.00 0.00 63 1013.7
20260903201500 92 285 0.0 0.0 0.00 0.00 0.00 64 1013.7
20260903194500 93 258 0.0 0.0 0.00 0.00 0.00 64 1014.2
20260903193002 93 262 0.0 0.0 0.00 0.00 0.00 66 1014.5
20260903191500 93 279 0.0 0.0 0.00 0.00 0.00 62 1014.8
20260903190003 92 284 0.0 0.0 0.00 0.00 0.00 64 1014.9
20260903184500 93 239 0.0 0.0 0.00 0.00 0.00 64 1015.0
20260903183002 92 238 0.0 0.0 0.00 0.00 0.00 63 1015.0
20260903181500 92 276 0.0 0.0 0.00 0.00 0.00 62 1015.1
20260903180003 92 240 0.0 0.0 0.00 0.00 0.00 64 1015.0
20260903174500 91 264 0.0 0.0 0.00 0.00 0.00 66 1015.2
20260903173000 91 264 0.0 0.0 0.00 0.00 0.00 67 1015.1
20260903170002 91 264 0.0 0.0 0.00 0.00 0.00 65 1015.6
20260903164500 90 246 0.0 0.0 0.00 0.00 0.00 65 1015.7
20260903163010 90 264 0.0 0.0 0.00 0.00 0.00 68 1015.8
20260903161500 89 280 0.0 0.0 0.00 0.00 0.00 68 1016.0
20260903160004 89 275 0.0 0.0 0.00 0.00 0.00 69 1016.0